COSMOS 2016

Satellite information

Favourite Embed

Satellite Type and Status

PAYLOADIN ORBIT

Key statistics

Satellite COSMOS 2016 at a glance.

Uptime

13243

Days in orbit

Revolutions

≈ 13.8

Per day

Orbit

LEO

Low Earth Orbit

Inclination

83.0

Latest

Satellite identification and parameters

Extended collection of information and parameters for COSMOS 2016.

Object identification

Identified? True

Debris? False

Object name: COSMOS 2016

International designator: 1989-028A

Object number (NORAD): 19921

Object ID (CCSDS): 19921

Country: COMMONWEALTH OF INDEPENDENT STATES (CIS)

Current information (Y/N): Y

RCS size: LARGE

Orbital parameters

Period: 104.704 minutes

Inclination: 82.9616 deg

SMA: 7358.729 km

Apoapsis: 1010.839 km

Periapsis: 950.349 km

RAAN: 83.2562 deg

Eccentricy: 0.0041101

Argument of periapsis: 78.0511 deg

Mean anomaly: 40.5388 deg

Mean motion: 13.75303567 rev/day

Mean motion (dot): 0.00000036 rev/day2

B* drag term: 0.000021283 1/REarth

Two-line elements (TLE)

Creation date: July 6, 2025, 6:05 p.m.

Reference frame: TEME

Reference center: EARTH

Epoch: July 6, 2025, 5:58 a.m. UTC

TLE line 0: 0 COSMOS 2016

TLE line 1: 1 19921U 89028A 25187.24911638 .00000036 00000-0 21283-4 0 9995

TLE line 2: 2 19921 82.9616 83.2562 0041101 78.0511 40.5388 13.75303567818321

Live tracking on map

Real-time ground track for satellite COSMOS 2016.

In-orbit conjunctions

A list of the most updated potential collisions computed for object COSMOS 2016.

Target Orbit TCA Probability of collision Miss distance Type
THOR ABLESTAR DEB LEO 2024-08-06 07:54:37 0.003628954 255.0 (m) DEBRIS
NIMBUS 2 DEB SSO 2024-06-22 22:56:54 0.0001061538 163.0 (m) DEBRIS
NIMBUS 2 DEB SSO 2024-06-01 15:36:14 0.0001290898 413.0 (m) DEBRIS

Associated space launch

Navigation satellite providing location information for the Tsiklon-B navigation system

COSMOS 2016 was lifted into orbit during the mission ‘Kosmos-3M | Parus 65’, on board a Kosmos-3M space rocket.

The launch took place on April 4, 1989, 6:36 p.m. from 132/2.

For more information about the launch, click the button.

Launch to space Kosmos-3M | Parus 65
Kosmos-3M | Parus 65

Agency: N/A

Status: Launch Successful

Launch date: April 4, 1989, 6:36 p.m. UTC

Rocket: Kosmos-3M

Launch pad: 132/2

Location: Plesetsk Cosmodrome, Russian Federation

...

Latest news about this satellite

There are no fresh news available about this satellite. Check back as we update our databases every day.


Newsletter sign-up

Weekly statistics, charts and insights to help you stay on top of the space industry.